Location: Fort Wayne
(41.1310°N, 85.1290°W)
Time: 03:20:37
(UTC-04:00)

ISS - Visible Passes

Search period start: 21 April 2014 00:00
Search period end: 01 May 2014 00:00
Orbit: 414 x 419 km, 51.6° (Epoch: 21 April)

Date Brightness Start Highest point End Pass type
(mag) Time Alt. Az. Time Alt. Az. Time Alt. Az.
21 Apr -3.0 22:16:02 10° WNW 22:19:20 54° SW 22:19:28 54° SSW visible
22 Apr -3.3 21:27:24 10° NW 21:30:46 85° NE 21:32:54 21° SE visible
23 Apr -1.2 22:16:06 10° W 22:18:34 19° SW 22:19:15 18° SSW visible
24 Apr -1.9 21:26:56 10° WNW 21:29:59 33° SW 21:32:42 12° SSE visible
26 Apr -0.5 21:27:19 10° WSW 21:28:44 12° SW 21:30:08 10° SSW visible
